Date String (YYYY-MM-DD hh:mm:ss) UTC,Instrument flags,Ambient pressure (hPa),Sample flow (lpm),Bypass flow (lpm),Sample temperature (°C),Ambient temperature (°C),ASC tube jacket temperature (°C),LED temperature (°C),Box temperature (°C),Sample RH (%),Span deviation,Mass concentration (μg/m³),Mass concentration (μg/m³),Mass concentration (μg/m³)
DateTimeUTC,F1_M11,P_M11,Q1_M11,Q2_M11,T1_M11,T2_M11,T3_M11,T4_M11,T5_M11,U1_M11,ZSPAN_M11,X0_M11,X2_M11,X1_M11
2023-05-03 18:00:00,,0827.7,5.00,0.00,30.2,28.9,00.0,38.5,31.7,15.9,0000.0,0013.30,0004.88,0003.43
2023-05-03 18:01:00,,0827.7,4.99,0.00,30.2,28.9,00.0,38.5,31.7,15.7,0000.0,0013.70,0004.93,0003.47
2023-05-03 18:02:00,,0827.7,5.00,0.00,30.2,28.9,00.0,38.5,31.7,15.9,0000.0,0013.94,0004.98,0003.50
2023-05-03 18:03:00,,0827.7,5.00,0.00,30.2,28.9,00.0,38.5,31.7,16.0,0000.0,0014.00,0005.03,0003.52
2023-05-03 18:04:00,,0827.7,5.00,0.00,30.2,28.9,00.0,38.6,31.7,15.8,0000.0,0014.24,0005.06,0003.51
2023-05-03 18:05:00,,0827.7,5.00,0.00,30.2,28.9,00.0,38.6,31.7,15.9,0000.0,0015.66,0005.06,0003.51
2023-05-03 18:06:00,,0827.7,5.00,0.00,30.2,28.9,00.0,38.6,31.7,15.8,0000.0,0016.17,0005.07,0003.51
2023-05-03 18:07:00,,0827.6,5.01,0.00,30.2,28.9,00.0,38.6,31.7,15.7,0000.0,0016.33,0005.06,0003.53
2023-05-03 18:08:00,,0827.6,5.00,0.00,30.2,29.0,00.0,38.6,31.7,15.1,0000.0,0016.67,0005.11,0003.56
2023-05-03 18:09:00,,0827.6,5.00,0.00,30.2,29.0,00.0,38.6,31.8,14.9,0000.0,0016.70,0005.13,0003.57
2023-05-03 18:10:00,,0827.5,5.00,0.00,30.2,29.0,00.0,38.6,31.8,14.8,0000.0,0016.80,0005.19,0003.57
2023-05-03 18:11:00,,0827.5,4.99,0.00,30.2,28.5,00.0,38.5,31.7,14.9,0000.0,0016.84,0005.24,0003.57
2023-05-03 18:12:00,,0827.7,4.99,0.00,30.2,26.9,00.0,38.5,31.5,14.2,0000.0,0016.84,0005.20,0003.55
2023-05-03 18:13:00,,0827.5,5.01,0.00,30.1,26.5,00.0,38.4,31.4,14.1,0000.0,0017.33,0005.15,0003.51
2023-05-03 18:14:00,,0827.5,5.01,0.00,30.1,26.7,00.0,38.4,31.2,13.6,0000.0,0017.12,0005.06,0003.47
2023-05-03 18:15:00,,0827.6,4.98,0.00,30.0,27.0,00.0,38.4,31.3,13.3,0000.0,0016.86,0004.98,0003.44
2023-05-03 18:16:00,,0827.6,5.01,0.00,30.0,27.3,00.0,38.4,31.3,13.4,0000.0,0015.86,0004.93,0003.40
2023-05-03 18:17:00,,0827.4,5.02,0.00,30.0,27.6,00.0,38.4,31.4,13.8,0000.0,0015.09,0004.90,0003.39
2023-05-03 18:18:00,,0827.4,4.98,0.00,30.0,27.8,00.0,38.4,31.4,14.4,0000.0,0015.16,0004.96,0003.39
2023-05-03 18:19:00,,0827.4,4.99,0.00,30.0,28.1,00.0,38.4,31.5,14.7,0000.0,0014.73,0004.95,0003.39
2023-05-03 18:20:00,,0827.5,5.01,0.00,30.0,28.2,00.0,38.4,31.5,14.6,0000.0,0014.84,0004.98,0003.41
2023-05-03 18:21:00,,0827.4,5.00,0.00,30.1,28.4,00.0,38.4,31.6,14.5,0000.0,0014.83,0005.03,0003.45
2023-05-03 18:22:00,,0827.4,5.00,0.00,30.1,28.5,00.0,38.4,31.6,15.1,0000.0,0015.16,0005.11,0003.48
2023-05-03 18:23:00,,0827.4,5.00,0.00,30.1,28.6,00.0,38.4,31.7,15.3,0000.0,0015.05,0005.21,0003.53
2023-05-03 18:24:00,,0827.4,5.00,0.00,30.1,28.7,00.0,38.5,31.7,14.4,0000.0,0014.10,0005.26,0003.60
2023-05-03 18:25:00,,0827.4,4.99,0.00,30.2,28.8,00.0,38.5,31.7,14.0,0000.0,0014.28,0005.29,0003.61
2023-05-03 18:26:00,,0827.4,5.02,0.00,30.2,28.9,00.0,38.5,31.7,13.5,0000.0,0015.54,0005.27,0003.62
2023-05-03 18:27:00,,0827.4,5.00,0.00,30.2,29.0,00.0,38.5,31.8,13.3,0000.0,0015.44,0005.33,0003.64
2023-05-03 18:28:00,,0827.4,5.00,0.00,30.2,29.0,00.0,38.5,31.8,13.3,0000.0,0015.72,0005.36,0003.66
2023-05-03 18:29:00,,0827.4,5.00,0.00,30.3,29.1,00.0,38.5,31.9,13.5,0000.0,0015.91,0005.40,0003.69
2023-05-03 18:30:00,,0827.3,4.99,0.00,30.3,29.1,00.0,38.6,31.8,13.6,0000.0,0015.77,0005.39,0003.70
2023-05-03 18:31:00,,0827.2,4.99,0.00,30.3,29.1,00.0,38.6,31.9,13.5,0000.0,0015.50,0005.46,0003.74
2023-05-03 18:32:00,,0827.3,5.00,0.00,30.3,29.1,00.0,38.6,31.9,13.3,0000.0,0016.21,0005.53,0003.79
2023-05-03 18:33:00,,0827.3,5.00,0.00,30.4,28.0,00.0,38.5,31.8,13.4,0000.0,0015.66,0005.51,0003.82
2023-05-03 18:34:00,,0827.2,5.01,0.00,30.3,26.3,00.0,38.4,31.5,13.3,0000.0,0015.87,0005.50,0003.85
2023-05-03 18:35:00,,0827.2,5.02,0.00,30.2,26.0,00.0,38.4,31.4,13.0,0000.0,0015.99,0005.47,0003.83
2023-05-03 18:36:00,,0827.2,5.01,0.00,30.1,26.3,00.0,38.4,31.2,13.0,0000.0,0016.46,0005.52,0003.86
2023-05-03 18:37:00,,0827.2,4.99,0.00,30.0,26.6,00.0,38.4,31.2,12.7,0000.0,0015.96,0005.62,0003.92
2023-05-03 18:38:00,,0827.2,5.00,0.00,30.0,27.0,00.0,38.4,31.3,12.6,0000.0,0017.08,0005.71,0003.96
2023-05-03 18:39:00,,0827.1,5.00,0.00,30.0,27.3,00.0,38.4,31.4,13.0,0000.0,0017.17,0005.75,0004.02
2023-05-03 18:40:00,,0827.1,5.00,0.00,30.0,27.6,00.0,38.4,31.4,13.2,0000.0,0017.17,0005.74,0004.05
2023-05-03 18:41:00,,0827.2,5.00,0.00,30.0,27.8,00.0,38.4,31.4,13.1,0000.0,0017.58,0005.77,0004.07
2023-05-03 18:42:00,,0827.1,4.99,0.00,30.0,28.1,00.0,38.4,31.5,13.3,0000.0,0017.67,0005.75,0004.06
2023-05-03 18:43:00,,0827.1,5.00,0.00,30.0,28.2,00.0,38.4,31.5,13.5,0000.0,0017.51,0005.68,0004.02
2023-05-03 18:44:00,,0827.2,5.01,0.00,30.0,28.4,00.0,38.4,31.6,12.4,0000.0,0018.19,0005.63,0003.96
2023-05-03 18:45:00,,0827.1,5.00,0.00,30.1,28.5,00.0,38.4,31.6,12.2,0000.0,0019.06,0005.57,0003.92
2023-05-03 18:46:00,,0827.1,5.00,0.00,30.1,28.6,00.0,38.4,31.7,12.0,0000.0,0018.92,0005.55,0003.87
2023-05-03 18:47:00,,0827.1,5.00,0.00,30.1,28.7,00.0,38.4,31.7,12.2,0000.0,0018.07,0005.53,0003.83
2023-05-03 18:48:00,,0827.1,5.00,0.00,30.1,28.8,00.0,38.4,31.7,12.4,0000.0,0018.37,0005.51,0003.81
2023-05-03 18:49:00,,0827.1,5.00,0.00,30.2,28.8,00.0,38.4,31.7,12.4,0000.0,0017.47,0005.50,0003.77
2023-05-03 18:50:00,,0827.2,5.00,0.00,30.2,28.9,00.0,38.5,31.8,12.2,0000.0,0017.27,0005.48,0003.76
2023-05-03 18:51:00,,0827.1,5.00,0.00,30.2,29.0,00.0,38.5,31.8,12.3,0000.0,0018.85,0005.49,0003.74
2023-05-03 18:52:00,,0827.1,5.00,0.00,30.2,29.0,00.0,38.5,31.8,12.2,0000.0,0018.83,0005.56,0003.78
2023-05-03 18:53:00,,0827.1,5.00,0.00,30.3,29.1,00.0,38.5,31.9,11.9,0000.0,0018.63,0005.56,0003.83
2023-05-03 18:54:00,,0827.1,5.00,0.00,30.3,29.1,00.0,38.5,31.9,12.0,0000.0,0018.32,0005.55,0003.83
2023-05-03 18:55:00,,0827.1,5.00,0.00,30.3,29.2,00.0,38.6,31.9,11.8,0000.0,0017.77,0005.55,0003.84
2023-05-03 18:56:00,,0827.1,4.99,0.00,30.4,29.1,00.0,38.6,32.0,11.9,0000.0,0016.43,0005.61,0003.86
2023-05-03 18:57:00,,0827.1,4.99,0.00,30.4,27.8,00.0,38.5,31.9,12.0,0000.0,0016.25,0005.64,0003.91
2023-05-03 18:58:00,,0827.0,5.00,0.00,30.3,26.1,00.0,38.4,31.5,11.8,0000.0,0016.96,0005.71,0003.97
2023-05-03 18:59:00,,0827.0,5.01,0.00,30.2,25.8,00.0,38.3,31.4,12.1,0000.0,0018.04,0005.73,0004.01
